Total_Precipitation_Accumulation
3.38 3.31 3.28 3.31 3.23 3.42 3.63 3.72 3.59 3.46 3.35 3.20 2.97 2.95 3.11 3.21 3.36 3.40 3.52 3.60 3.41 3.64 4.31 4.79 4.82 4.88 4.89 4.82 4.68 4.58 4.42 4.42 4.26 3.86 3.37 3.06 2.94 2.83 2.76 2.69 2.64 2.58 2.53
3.72 3.71 3.77 3.73 3.51 3.54 3.69 3.87 3.79 3.67 3.42 3.27 3.12 3.08 3.13 3.12 3.23 3.45 3.49 3.56 3.49 3.52 4.02 4.58 5.00 5.25 5.29 5.31 5.11 4.78 4.48 4.33 4.26 4.09 3.81 3.42 3.22 3.12 3.12 2.89 2.75 2.60 2.50
4.06 4.09 4.27 4.26 3.97 3.93 4.04 4.16 4.17 4.05 3.64 3.36 3.35 3.40 3.37 3.36 3.21 3.23 3.41 3.51 3.41 3.55 3.85 4.07 4.49 4.87 5.19 5.31 5.40 5.18 4.83 4.48 4.26 4.16 4.11 3.87 3.57 3.44 3.47 3.21 3.04 2.85 2.60
4.11 4.31 4.30 4.14 4.14 4.29 4.52 4.69 4.59 4.53 4.32 4.11 3.94 3.64 3.40 3.29 3.17 3.30 3.28 3.29 3.57 3.51 3.60 3.55 3.83 4.25 4.67 5.00 5.28 5.35 5.13 4.76 4.40 4.17 4.10 3.97 3.69 3.45 3.40 3.42 3.34 3.17 2.90
4.20 4.51 4.63 4.62 4.53 4.63 4.76 4.53 4.68 4.63 4.79 4.63 4.10 3.81 3.52 3.34 3.26 3.25 3.31 3.28 3.39 3.53 3.50 3.39 3.53 3.81 4.07 4.48 4.78 5.16 5.33 5.09 4.73 4.38 4.24 4.17 3.91 3.65 3.44 3.41 3.39 3.22 3.08
4.53 4.80 4.81 4.87 4.94 5.13 5.06 4.95 4.99 4.79 4.66 4.61 4.16 3.94 3.69 3.35 3.29 3.22 3.12 3.12 3.15 3.00 3.10 3.16 3.33 3.27 3.58 3.95 4.30 4.76 5.34 5.50 5.30 4.92 4.71 4.63 4.30 3.83 3.49 3.37 3.34 3.30 3.27
5.10 5.27 5.34 5.32 5.16 5.16 5.10 5.00 4.97 4.89 4.56 4.39 4.47 4.09 3.58 3.10 2.84 2.77 2.76 2.84 2.77 2.71 2.83 3.12 3.33 3.21 3.11 3.35 3.77 4.36 5.17 5.67 5.70 5.44 5.10 4.91 4.45 3.91 3.59 3.43 3.33 3.25 3.16
5.83 5.70 5.78 5.48 5.19 5.13 5.05 4.96 4.86 4.72 4.31 4.18 4.28 4.32 3.76 3.29 2.72 2.35 2.41 2.43 2.47 2.58 2.64 2.62 2.87 2.94 2.82 2.92 2.89 3.39 3.98 4.65 5.16 5.41 5.29 4.95 4.57 4.13 3.78 3.56 3.48 3.46 3.34
5.91 5.74 5.53 5.41 5.27 5.08 4.90 4.89 4.82 4.72 4.43 4.20 4.13 4.39 4.17 3.63 3.03 2.67 2.38 2.33 2.39 2.48 2.44 2.39 2.48 2.54 2.58 2.68 2.69 2.87 3.18 3.60 4.30 4.84 5.03 4.81 4.47 4.10 3.87 3.78 3.75 3.83 3.81
5.54 5.20 5.04 5.17 5.12 4.87 4.64 4.31 4.22 4.27 4.28 4.09 3.96 3.76 3.68 3.58 3.41 3.09 2.72 2.62 2.62 2.58 2.44 2.35 2.44 2.61 2.66 2.78 2.77 2.66 2.67 2.79 3.28 3.92 4.52 4.58 4.37 4.09 3.94 4.03 4.12 4.23 4.28
4.87 4.64 4.63 4.80 4.76 4.51 4.27 3.98 3.85 3.68 3.65 3.76 3.79 3.65 3.51 3.36 3.13 3.06 2.93 2.74 2.65 2.54 2.39 2.33 2.43 2.55 2.61 2.62 2.59 2.46 2.45 2.45 2.69 3.06 3.59 4.10 4.25 4.26 4.23 4.27 4.34 4.38 4.43
4.29 3.98 3.85 3.84 3.82 3.66 3.52 3.47 3.48 3.40 3.37 3.47 3.49 3.41 3.31 3.24 3.13 3.16 3.03 2.79 2.74 2.70 2.54 2.35 2.24 2.25 2.30 2.44 2.42 2.54 2.37 2.34 2.43 2.59 2.75 3.10 3.49 3.79 4.06 4.21 4.20 4.29 4.42
3.62 3.30 3.16 3.11 3.15 3.15 3.07 3.10 3.17 3.18 3.12 3.21 3.16 3.11 3.04 2.88 2.90 3.07 3.21 3.06 2.95 2.77 2.70 2.52 2.30 2.36 2.27 2.35 2.54 2.58 2.36 2.23 2.28 2.32 2.27 2.36 2.69 3.07 3.26 3.50 3.73 3.86 4.06
2.95 2.89 2.83 2.68 2.68 2.75 2.75 2.93 2.89 2.80 2.80 2.83 2.74 2.88 2.87 2.71 2.77 2.91 3.11 3.43 3.49 3.16 2.83 2.58 2.37 2.35 2.39 2.34 2.47 2.52 2.20 2.03 1.97 2.08 2.12 2.11 2.19 2.40 2.58 2.69 2.88 3.10 3.32
2.51 2.50 2.47 2.42 2.33 2.30 2.33 2.37 2.37 2.43 2.50 2.43 2.45 2.50 2.48 2.49 2.61 2.71 2.95 3.35 3.64 3.49 3.10 2.76 2.63 2.50 2.41 2.40 2.56 2.26 2.09 2.04 1.87 1.81 1.83 1.82 1.87 2.00 2.15 2.19 2.18 2.30 2.46
2.23 2.22 2.13 2.10 2.10 2.14 2.12 2.07 2.07 2.14 2.20 2.22 2.29 2.28 2.22 2.23 2.39 2.48 2.61 2.79 3.08 3.36 3.11 2.54 2.45 2.36 2.36 2.19 2.46 2.20 2.12 2.11 1.81 1.62 1.56 1.57 1.63 1.71 1.78 1.85 1.88 1.92 2.00
2.05 1.97 1.96 1.97 1.90 1.89 1.96 2.02 2.01 2.07 2.16 2.14 2.07 2.08 2.11 2.24 2.35 2.33 2.38 2.50 2.66 2.91 3.05 2.69 2.48 2.37 2.35 2.38 2.40 2.25 2.09 1.95 1.73 1.62 1.43 1.39 1.42 1.52 1.54 1.58 1.66 1.73 1.76
1.92 1.90 1.92 1.87 1.74 1.70 1.88 1.96 1.95 1.94 2.05 2.00 1.95 2.03 2.04 2.10 2.17 2.21 2.31 2.41 2.58 2.80 2.92 2.93 2.71 2.46 2.36 2.34 2.41 2.34 2.03 1.82 1.70 1.72 1.51 1.37 1.29 1.29 1.40 1.41 1.44 1.54 1.66
1.86 1.84 1.73 1.72 1.68 1.67 1.77 1.80 1.84 1.83 1.85 1.89 1.91 1.97 1.96 2.03 2.05 2.11 2.17 2.23 2.38 2.48 2.68 2.74 2.63 2.50 2.38 2.26 2.45 2.26 2.10 2.22 1.80 1.66 1.52 1.39 1.29 1.25 1.48 1.54 1.34 1.34 1.43
1.77 1.76 1.69 1.63 1.63 1.65 1.58 1.54 1.59 1.69 1.77 1.72 1.65 1.73 1.77 1.83 1.88 2.01 1.98 2.06 2.17 2.35 2.54 2.61 2.44 2.28 2.22 2.25 2.40 2.38 2.29 2.21 2.03 1.63 1.60 1.47 1.37 1.35 1.66 2.18 1.67 1.37 1.35
1.56 1.65 1.58 1.51 1.52 1.48 1.35 1.36 1.42 1.42 1.55 1.55 1.50 1.51 1.53 1.58 1.59 1.61 1.57 1.77 2.00 2.20 2.33 2.44 2.34 2.23 2.18 2.32 2.29 2.22 2.21 2.18 2.02 1.81 1.80 1.61 1.69 1.93 2.40 2.99 2.49 1.87 1.63
1.62 1.63 1.60 1.51 1.44 1.31 1.28 1.21 1.21 1.26 1.36 1.50 1.58 1.55 1.43 1.36 1.30 1.22 1.25 1.39 1.64 1.91 2.17 2.31 2.27 2.24 2.21 2.26 2.34 2.32 2.30 2.35 2.26 1.90 1.85 1.76 1.93 2.70 3.31 3.56 3.10 2.25 1.92
1.80 1.66 1.55 1.52 1.44 1.33 1.26 1.06 1.00 1.08 1.29 1.45 1.57 1.61 1.34 1.16 1.26 1.21 1.26 1.27 1.35 1.48 1.77 2.09 2.22 2.15 2.19 2.27 2.47 2.53 2.47 2.45 2.36 2.08 2.11 2.04 2.19 2.98 3.15 3.25 3.13 2.32 1.98
1.76 1.73 1.61 1.55 1.46 1.22 1.09 0.92 0.95 1.01 1.17 1.19 1.23 1.35 1.39 1.36 1.24 1.29 1.32 1.39 1.42 1.50 1.57 1.70 1.95 1.97 1.97 2.16 2.39 2.45 2.45 2.40 2.31 2.14 2.16 2.27 2.38 2.87 2.78 2.81 2.84 2.30 1.99
1.71 1.59 1.50 1.45 1.38 1.22 1.11 1.00 1.01 1.05 1.14 1.08 1.00 1.04 1.10 1.15 1.15 1.22 1.34 1.54 1.58 1.67 1.62 1.77 1.79 1.74 1.78 1.87 1.90 2.07 2.38 2.60 2.49 2.14 1.99 2.14 2.29 2.63 2.67 2.65 2.46 2.27 2.06
1.60 1.40 1.34 1.36 1.30 1.26 1.13 0.95 0.91 0.91 1.05 1.09 1.12 1.15 1.08 0.95 1.01 1.12 1.34 1.63 1.78 1.82 1.84 1.94 1.92 1.88 1.77 1.76 1.75 1.87 2.29 2.61 2.61 2.35 1.98 2.02 2.16 2.40 2.66 2.55 2.30 2.12 2.11